FW3609 Weather Reports


time (UTC)temp
F
wind
direction
speed
knots
gust
knots
rain 1hr
in
rain 24hr
in
rain mn
in
humidity
%
barometer
mb
20260510104504 49 134 0.0 0.0 0.00 0.12 0.00 98 1014.1
20260510103034 49 134 0.0 0.0 0.00 0.12 0.00 98 1013.7
20260510101612 49 134 0.0 0.0 0.00 0.12 0.00 98 1013.6
20260510100047 49 134 0.0 0.0 0.00 0.12 0.00 98 1013.6
20260510094608 49 134 0.0 0.0 0.00 0.12 0.00 98 1013.5
20260510093024 49 134 0.0 0.0 0.00 0.12 0.00 98 1013.6
20260510091550 49 134 0.0 0.0 0.00 0.12 0.00 98 1013.5
20260510090015 49 134 0.0 0.0 0.00 0.12 0.00 97 1013.1
20260510084541 49 134 0.0 0.0 0.00 0.12 0.00 97 1013.0
20260510083010 50 134 0.0 0.0 0.00 0.12 0.00 97 1013.1
20260510081535 50 134 0.0 0.0 0.00 0.12 0.00 97 1013.0
20260510074517 50 134 0.0 0.0 0.00 0.12 0.00 97 1012.5
20260510073046 50 134 0.0 0.0 0.00 0.12 0.00 96 1012.3
20260510071507 51 134 0.0 0.0 0.00 0.12 0.00 97 1012.0
20260510070034 51 134 0.0 0.0 0.00 0.12 0.00 96 1012.1
20260510064602 52 134 0.0 0.0 0.00 0.12 0.00 96 1012.0
20260510063024 52 134 0.0 0.0 0.00 0.12 0.00 96 1011.9
20260510061548 52 134 0.0 0.0 0.00 0.12 0.00 96 1012.0
20260510060020 53 134 0.0 0.0 0.00 0.12 0.00 96 1011.9
20260510054554 53 134 0.0 0.0 0.00 0.12 0.00 95 1012.1
20260510053013 54 134 0.0 0.0 0.00 0.12 0.00 95 1012.2
20260510051541 54 134 0.0 0.0 0.00 0.12 0.00 94 1012.0
20260510050106 55 134 0.0 0.0 0.00 0.12 0.00 94 1012.1
20260510044523 55 134 0.0 0.0 0.00 0.12 0.00 94 1012.1
20260510043051 56 134 0.0 0.0 0.00 0.12 0.00 93 1012.1
20260510041515 56 134 0.0 0.0 0.00 0.12 0.00 92 1012.1
20260510040042 57 134 0.0 0.0 0.00 0.12 0.12 91 1012.0
20260510034507 58 134 0.0 0.0 0.00 0.12 0.12 89 1011.9
20260510033024 59 134 0.0 0.0 0.00 0.12 0.12 88 1011.9
20260510031606 59 134 0.0 0.0 0.00 0.12 0.12 87 1011.9
20260510030017 60 134 0.0 0.0 0.00 0.12 0.12 86 1011.9
20260510024544 61 134 0.0 0.0 0.00 0.12 0.12 85 1011.8
20260510023008 61 134 0.0 0.0 0.00 0.12 0.12 85 1011.7
20260510021540 61 134 0.0 0.0 0.00 0.12 0.12 84 1011.8
20260510020010 61 134 0.0 0.0 0.00 0.12 0.12 84 1011.5
20260510014537 61 134 0.0 0.0 0.00 0.12 0.12 83 1011.4
20260510013006 62 134 0.0 0.0 0.00 0.12 0.12 82 1011.3
20260510011535 63 134 0.0 0.0 0.00 0.12 0.12 80 1011.0
20260510010105 64 134 0.0 0.0 0.00 0.12 0.12 79 1010.9
20260510004528 64 134 0.0 0.0 0.00 0.12 0.12 78 1010.7
20260510003100 65 134 0.0 0.0 0.00 0.12 0.12 77 1010.6
20260510001528 66 135 0.0 0.0 0.00 0.12 0.12 76 1010.5
20260510000053 67 132 0.0 0.0 0.00 0.12 0.12 74 1010.4
20260509234517 68 102 0.0 0.0 0.00 0.12 0.12 73 1010.3
20260509233048 69 102 0.0 0.0 0.00 0.12 0.12 71 1010.4
20260509231517 70 108 0.0 0.9 0.00 0.12 0.12 70 1010.1
20260509230045 71 115 0.0 1.7 0.00 0.12 0.12 68 1010.0
20260509224512 74 44 0.0 3.5 0.00 0.12 0.12 61 1010.0
20260509223054 74 110 1.7 3.5 0.00 0.12 0.12 56 1010.0
20260509221508 74 122 0.0 1.7 0.00 0.12 0.12 60 1010.0
20260509220053 73 142 0.0 3.5 0.00 0.12 0.12 60 1010.0
20260509214504 73 116 0.0 1.7 0.00 0.12 0.12 60 1009.9
20260509213034 74 283 0.0 2.6 0.00 0.12 0.12 60 1010.0
20260509211606 73 94 0.0 2.6 0.00 0.12 0.12 61 1010.0
20260509210033 73 295 0.9 3.5 0.00 0.12 0.12 61 1009.9
20260509204605 74 243 0.9 4.3 0.00 0.12 0.12 59 1009.8
20260509203027 74 282 0.0 3.5 0.00 0.12 0.12 62 1009.6
20260509201555 72 265 0.0 3.5 0.00 0.12 0.12 66 1009.8
20260509200018 72 214 0.9 2.6 0.00 0.12 0.12 67 1010.2
20260509194544 69 139 0.0 3.5 0.00 0.12 0.12 77 1010.4
20260509193002 66 108 0.0 2.6 0.00 0.12 0.12 83 1010.8
20260509191532 65 83 0.0 0.0 0.11 0.12 0.12 87 1011.0
20260509190107 63 8 0.0 0.0 0.12 0.12 0.12 93 1010.8
20260509184533 62 259 0.0 1.7 0.12 0.12 0.12 93 1011.0
20260509183054 62 209 0.0 0.9 0.12 0.12 0.12 88 1011.4
20260509181516 66 231 0.0 1.7 0.01 0.01 0.01 71 1011.7
20260509180043 68 276 0.0 2.6 0.00 0.00 0.00 64 1011.7
20260509174508 68 15 0.0 4.3 0.00 0.00 0.00 63 1011.9
20260509173044 69 216 0.0 3.5 0.00 0.00 0.00 63 1011.9
20260509171508 68 249 3.5 10.4 0.00 0.00 0.00 62 1012.1
20260509170034 68 195 0.0 7.0 0.00 0.00 0.00 63 1012.2
20260509164600 68 252 0.0 6.1 0.00 0.00 0.00 62 1012.2
20260509163029 69 229 0.0 2.6 0.00 0.00 0.00 63 1012.2
20260509161554 69 131 0.0 5.2 0.00 0.00 0.00 62 1012.3
20260509160022 69 143 2.6 6.1 0.00 0.00 0.00 62 1012.3
20260509154557 68 194 0.0 4.3 0.00 0.00 0.00 63 1012.6
20260509153012 67 255 0.9 4.3 0.00 0.00 0.00 63 1012.7
20260509151536 66 131 0.9 3.5 0.00 0.00 0.00 65 1012.9
20260509144524 63 103 0.0 2.6 0.00 0.00 0.00 69 1013.2
20260509143053 62 262 0.0 1.7 0.00 0.00 0.00 70 1013.5
20260509141516 62 240 0.0 4.3 0.00 0.00 0.00 71 1013.4
20260509140058 62 182 0.0 2.6 0.00 0.00 0.00 70 1013.3
20260509134509 61 12 0.9 3.5 0.00 0.00 0.00 71 1013.4
20260509133040 60 75 0.0 2.6 0.00 0.00 0.00 71 1013.4
20260509131526 60 184 0.0 3.5 0.00 0.00 0.00 70 1013.4
20260509130043 61 165 0.0 3.5 0.00 0.00 0.00 70 1013.4
20260509124501 60 127 0.9 3.5 0.00 0.00 0.00 69 1013.1
20260509123028 60 226 1.7 3.5 0.00 0.00 0.00 67 1013.0
20260509121607 60 160 0.9 4.3 0.00 0.00 0.00 67 1013.1
20260509120022 60 132 0.0 4.3 0.00 0.00 0.00 66 1013.1
20260509114545 59 164 0.0 2.6 0.00 0.00 0.00 66 1013.2
20260509113014 59 56 0.0 0.9 0.00 0.00 0.00 66 1012.9
20260509111548 58 130 0.0 1.7 0.00 0.00 0.00 67 1012.9
20260509110014 58 110 0.0 0.9 0.00 0.00 0.00 65 1012.9